Time+03,TemperatureF,Dew PointF,Humidity,Sea Level PressureIn,VisibilityMPH,Wind Direction,Wind SpeedMPH,Gust SpeedMPH,PrecipitationIn,Events,Conditions,WindDirDegrees,DateUTC
12:00 AM,60.8,50.0,68,30.18,-9999.0,SSE,3.5,-,N/A,,Clear,150,2013-01-18 21:00:00
1:00 AM,60.8,50.0,68,30.18,-9999.0,SE,3.5,-,N/A,,Clear,140,2013-01-18 22:00:00
1:30 AM,59.0,50.0,72,30.15,-9999.0,SE,4.6,-,N/A,,Clear,140,2013-01-18 22:30:00
2:00 AM,60.8,50.0,68,30.15,-9999.0,SE,4.6,-,N/A,,Clear,130,2013-01-18 23:00:00
2:30 AM,60.8,51.8,72,30.15,-9999.0,Variable,2.3,-,N/A,,Clear,0,2013-01-18 23:30:00
3:00 AM,60,51,65,30.18,6,,2.3,,,,Clear,,2013-01-19 00:00:00
3:00 AM,60.8,51.8,72,30.15,-9999.0,Variable,2.3,-,N/A,,Clear,0,2013-01-19 00:00:00
3:30 AM,59.0,51.8,77,30.15,-9999.0,Calm,Calm,-,N/A,,Clear,0,2013-01-19 00:30:00
4:00 AM,59.0,51.8,77,30.18,-9999.0,Variable,1.2,-,N/A,,Clear,0,2013-01-19 01:00:00
4:30 AM,59.0,51.8,77,30.18,-9999.0,Calm,Calm,-,N/A,,Clear,0,2013-01-19 01:30:00
5:00 AM,59.0,51.8,77,30.18,-9999.0,Calm,Calm,-,N/A,,Clear,0,2013-01-19 02:00:00
5:30 AM,59.0,50.0,72,30.21,-9999.0,Calm,Calm,-,N/A,,Clear,0,2013-01-19 02:30:00
6:00 AM,59.0,50.0,72,30.21,-9999.0,Variable,2.3,-,N/A,,Clear,0,2013-01-19 03:00:00
6:30 AM,57.2,50.0,77,30.21,-9999.0,Calm,Calm,-,N/A,,Clear,0,2013-01-19 03:30:00
7:00 AM,59.0,50.0,72,30.21,-9999.0,Variable,2.3,-,N/A,,Clear,0,2013-01-19 04:00:00
7:30 AM,60.8,51.8,72,30.24,-9999.0,Variable,2.3,-,N/A,,Clear,0,2013-01-19 04:30:00
8:00 AM,62.6,51.8,68,30.24,-9999.0,Variable,2.3,-,N/A,,Clear,0,2013-01-19 05:00:00
8:30 AM,66.2,51.8,60,30.24,-9999.0,Variable,2.3,-,N/A,,Clear,0,2013-01-19 05:30:00
9:00 AM,66,49,44,30.27,7,SSE,6.9,,,,Scattered Clouds,150,2013-01-19 06:00:00
9:00 AM,66.2,50.0,56,30.27,-9999.0,SSE,6.9,-,N/A,,Clear,150,2013-01-19 06:00:00
9:30 AM,68.0,48.2,49,30.24,-9999.0,SE,5.8,-,N/A,,Clear,140,2013-01-19 06:30:00
10:00 AM,69.8,48.2,46,30.24,-9999.0,Variable,2.3,-,N/A,,Clear,0,2013-01-19 07:00:00
10:30 AM,69.8,46.4,43,30.24,-9999.0,Variable,2.3,-,N/A,,Clear,0,2013-01-19 07:30:00
11:00 AM,69.8,46.4,43,30.21,-9999.0,East,5.8,-,N/A,,Clear,80,2013-01-19 08:00:00
11:30 AM,71.6,46.4,41,30.21,-9999.0,ESE,6.9,-,N/A,,Clear,120,2013-01-19 08:30:00
12:00 PM,71.6,44.6,38,30.18,-9999.0,SE,6.9,-,N/A,,Clear,140,2013-01-19 09:00:00
1:00 PM,69.8,44.6,40,30.15,-9999.0,ESE,13.8,-,N/A,,Clear,110,2013-01-19 10:00:00
1:30 PM,69.8,46.4,43,30.15,-9999.0,East,9.2,-,N/A,,Clear,90,2013-01-19 10:30:00
2:00 PM,69.8,44.6,40,30.15,-9999.0,East,9.2,-,N/A,,Clear,100,2013-01-19 11:00:00
2:30 PM,69.8,44.6,40,30.15,-9999.0,East,9.2,-,N/A,,Clear,100,2013-01-19 11:30:00
3:00 PM,69,46,32,30.17,9,ESE,8.1,,,,Scattered Clouds,110,2013-01-19 12:00:00
3:00 PM,69.8,46.4,43,30.15,-9999.0,ESE,8.1,-,N/A,,Clear,110,2013-01-19 12:00:00
4:00 PM,68.0,46.4,46,30.15,-9999.0,ESE,9.2,-,N/A,,Clear,110,2013-01-19 13:00:00
4:30 PM,68.0,48.2,49,30.15,-9999.0,ESE,8.1,-,N/A,,Clear,120,2013-01-19 13:30:00
5:00 PM,66.2,48.2,52,30.15,-9999.0,ESE,8.1,-,N/A,,Clear,120,2013-01-19 14:00:00
5:30 PM,66.2,48.2,52,30.18,-9999.0,SE,8.1,-,N/A,,Clear,140,2013-01-19 14:30:00
6:00 PM,66.2,48.2,52,30.18,-9999.0,SE,8.1,-,N/A,,Clear,140,2013-01-19 15:00:00
6:30 PM,64.4,48.2,56,30.18,-9999.0,SE,8.1,-,N/A,,Clear,140,2013-01-19 15:30:00
7:00 PM,64.4,48.2,56,30.18,-9999.0,SE,6.9,-,N/A,,Clear,140,2013-01-19 16:00:00
7:30 PM,64.4,51.8,64,30.18,-9999.0,SSE,4.6,-,N/A,,Clear,160,2013-01-19 16:30:00
8:00 PM,64.4,53.6,68,30.18,-9999.0,SE,4.6,-,N/A,,Clear,140,2013-01-19 17:00:00
8:30 PM,62.6,53.6,72,30.18,-9999.0,Variable,2.3,-,N/A,,Clear,0,2013-01-19 17:30:00
9:00 PM,62,53,64,30.20,7,SE,3.5,,,,Scattered Clouds,130,2013-01-19 18:00:00
9:00 PM,62.6,53.6,72,30.18,-9999.0,SE,3.5,-,N/A,,Clear,130,2013-01-19 18:00:00
9:30 PM,62.6,53.6,72,30.18,-9999.0,Variable,2.3,-,N/A,,Clear,0,2013-01-19 18:30:00
10:00 PM,62.6,53.6,72,30.18,-9999.0,SE,4.6,-,N/A,,Clear,130,2013-01-19 19:00:00
10:30 PM,60.8,53.6,77,30.18,-9999.0,Variable,2.3,-,N/A,,Clear,0,2013-01-19 19:30:00
11:00 PM,62.6,53.6,72,30.18,-9999.0,SSE,3.5,-,N/A,,Clear,160,2013-01-19 20:00:00
11:30 PM,62.6,53.6,72,30.15,-9999.0,Variable,2.3,-,N/A,,Clear,0,2013-01-19 20:30:00